When you browse on this site, cookies collect data to enhance your experience and personalize the content and advertising you see.
Visit our Privacy Policy to learn more. By continuing to use the site, you agree to this use of cookies and data.
  • In Hungary
  • List of Countries
  • For 7 days
  • Water Temperature
  • Satellite Maps
  • Weather Map
  • News
  • Weather Widgets
  • user-avatar
    Login

    Hourly Weather Maskat

    Today, 13 December, Thursday

    Time Temperature Precipitation Wind Pressure Humidity
    00:00 +23°C° 0 mm 1 mps 758 mmHg 64%
    01:00 +23°C° 0 mm 1 mps 758 mmHg 64%
    02:00 +23°C° 0 mm 1 mps 758 mmHg 65%
    03:00 +23°C° 0 mm 1 mps 758 mmHg 65%
    04:00 +20°C° 0 mm 0 mps 758 mmHg 63%
    05:00 +20°C° 0 mm 0 mps 758 mmHg 63%
    06:00 +22°C° 0 mm 1 mps 758 mmHg 63%
    07:00 +22°C° 0 mm 1 mps 759 mmHg 63%
    08:00 +24°C° 0 mm 1 mps 759 mmHg 56%
    09:00 +26°C° 0 mm 1 mps 759 mmHg 49%
    10:00 +28°C° 0 mm 2 mps 759 mmHg 42%
    11:00 +29°C° 0 mm 2 mps 759 mmHg 40%
    12:00 +29°C° 0 mm 3 mps 758 mmHg 38%
    13:00 +30°C° 0 mm 4 mps 758 mmHg 36%
    14:00 +30°C° 0 mm 4 mps 758 mmHg 36%
    15:00 +29°C° 0 mm 4 mps 757 mmHg 37%
    16:00 +29°C° 0 mm 5 mps 757 mmHg 38%
    17:00 +28°C° 0 mm 4 mps 758 mmHg 40%
    18:00 +28°C° 0 mm 4 mps 758 mmHg 43%
    19:00 +27°C° 0 mm 4 mps 758 mmHg 45%
    20:00 +26°C° 0 mm 4 mps 758 mmHg 47%
    21:00 +26°C° 0 mm 4 mps 758 mmHg 48%
    22:00 +25°C° 0 mm 4 mps 758 mmHg 50%
    23:00 +25°C° 0 mm 4 mps 758 mmHg 51%

    Tomorrow, 14 December, Friday

    Time Temperature Precipitation Wind Pressure Humidity
    00:00 +23°C° 0 mm 4 mps 758 mmHg 51%
    01:00 +24°C° 0 mm 3 mps 758 mmHg 51%
    02:00 +24°C° 0 mm 3 mps 758 mmHg 52%
    03:00 +24°C° 0 mm 3 mps 758 mmHg 52%
    04:00 +24°C° 0 mm 3 mps 758 mmHg 52%
    05:00 +23°C° 0 mm 2 mps 758 mmHg 52%
    06:00 +23°C° 0 mm 2 mps 758 mmHg 53%
    07:00 +23°C° 0 mm 2 mps 759 mmHg 54%
    08:00 +24°C° 0 mm 2 mps 759 mmHg 50%
    09:00 +26°C° 0 mm 2 mps 760 mmHg 45%
    10:00 +27°C° 0 mm 2 mps 760 mmHg 41%
    11:00 +28°C° 0 mm 2 mps 759 mmHg 39%
    12:00 +29°C° 0 mm 3 mps 759 mmHg 38%
    13:00 +29°C° 0 mm 3 mps 758 mmHg 36%
    14:00 +29°C° 0 mm 4 mps 758 mmHg 37%
    15:00 +28°C° 0 mm 4 mps 758 mmHg 39%
    16:00 +28°C° 0 mm 5 mps 758 mmHg 40%
    17:00 +27°C° 0 mm 5 mps 758 mmHg 42%
    18:00 +27°C° 0 mm 5 mps 758 mmHg 45%
    19:00 +26°C° 0 mm 5 mps 759 mmHg 47%
    20:00 +26°C° 0 mm 5 mps 759 mmHg 49%
    21:00 +25°C° 0 mm 5 mps 759 mmHg 50%
    22:00 +25°C° 0 mm 5 mps 759 mmHg 52%
    23:00 +25°C° 0 mm 4 mps 759 mmHg 53%

    Day after tomorrow, 15 December, Saturday

    Time Temperature Precipitation Wind Pressure Humidity
    00:00 +23°C° 0 mm 4 mps 759 mmHg 54%
    01:00 +23°C° 0 mm 4 mps 759 mmHg 55%
    02:00 +22°C° 0 mm 4 mps 758 mmHg 56%
    03:00 +22°C° 0 mm 3 mps 758 mmHg 57%
    04:00 +21°C° 0 mm 3 mps 758 mmHg 58%
    05:00 +21°C° 0 mm 3 mps 758 mmHg 59%
    06:00 +21°C° 0 mm 3 mps 759 mmHg 59%
    07:00 +21°C° 0 mm 3 mps 759 mmHg 60%
    08:00 +22°C° 0 mm 3 mps 759 mmHg 54%
    09:00 +25°C° 0 mm 4 mps 760 mmHg 47%
    10:00 +26°C° 0 mm 4 mps 760 mmHg 41%
    11:00 +27°C° 0 mm 4 mps 759 mmHg 39%
    12:00 +27°C° 0 mm 4 mps 759 mmHg 37%
    13:00 +28°C° 0 mm 4 mps 758 mmHg 35%
    14:00 +28°C° 0 mm 5 mps 758 mmHg 36%
    15:00 +28°C° 0 mm 5 mps 758 mmHg 38%
    16:00 +27°C° 0 mm 5 mps 758 mmHg 39%
    17:00 +26°C° 0 mm 5 mps 758 mmHg 42%
    18:00 +26°C° 0 mm 5 mps 759 mmHg 46%
    19:00 +25°C° 0 mm 5 mps 759 mmHg 49%
    20:00 +23°C° 0 mm 4 mps 759 mmHg 49%
    21:00 +23°C° 0 mm 4 mps 759 mmHg 50%
    22:00 +23°C° 0 mm 4 mps 759 mmHg 50%
    23:00 +22°C° 0 mm 4 mps 759 mmHg 51%

    16 December, Sunday

    Time Temperature Precipitation Wind Pressure Humidity
    00:00 +22°C° 0 mm 4 mps 759 mmHg 51%
    01:00 +22°C° 0 mm 3 mps 759 mmHg 52%
    02:00 +21°C° 0 mm 3 mps 759 mmHg 52%
    03:00 +21°C° 0 mm 3 mps 759 mmHg 53%
    04:00 +21°C° 0 mm 3 mps 759 mmHg 54%
    05:00 +21°C° 0 mm 3 mps 759 mmHg 56%
    06:00 +20°C° 0 mm 3 mps 759 mmHg 57%
    07:00 +20°C° 0 mm 3 mps 760 mmHg 59%
    08:00 +22°C° 0 mm 4 mps 760 mmHg 54%
    09:00 +23°C° 0 mm 4 mps 761 mmHg 48%
    10:00 +26°C° 0 mm 4 mps 761 mmHg 43%
    11:00 +26°C° 0 mm 5 mps 760 mmHg 40%
    12:00 +27°C° 0 mm 5 mps 760 mmHg 38%
    13:00 +27°C° 0 mm 5 mps 759 mmHg 35%
    14:00 +27°C° 0 mm 4 mps 759 mmHg 37%
    15:00 +27°C° 0 mm 4 mps 758 mmHg 39%
    16:00 +27°C° 0 mm 4 mps 758 mmHg 40%
    17:00 +26°C° 0 mm 4 mps 759 mmHg 45%
    18:00 +25°C° 0 mm 3 mps 759 mmHg 49%
    19:00 +24°C° 0 mm 3 mps 760 mmHg 54%
    20:00 +24°C° 0 mm 3 mps 760 mmHg 56%
    21:00 +22°C° 0 mm 3 mps 760 mmHg 58%
    22:00 +22°C° 0 mm 3 mps 760 mmHg 60%
    23:00 +21°C° 0 mm 3 mps 760 mmHg 62%

    17 December, Monday

    Time Temperature Precipitation Wind Pressure Humidity
    00:00 +20°C° 0 mm 2 mps 759 mmHg 64%
    01:00 +20°C° 0 mm 2 mps 759 mmHg 65%
    02:00 +19°C° 0 mm 2 mps 759 mmHg 65%
    03:00 +20°C° 0 mm 1 mps 759 mmHg 65%
    04:00 +20°C° 0 mm 1 mps 759 mmHg 66%
    05:00 +20°C° 0 mm 1 mps 759 mmHg 65%
    06:00 +19°C° 0 mm 1 mps 759 mmHg 65%
    07:00 +19°C° 0 mm 1 mps 760 mmHg 65%
    08:00 +20°C° 0 mm 2 mps 760 mmHg 58%
    09:00 +23°C° 0 mm 2 mps 760 mmHg 52%
    10:00 +25°C° 0 mm 3 mps 760 mmHg 45%
    11:00 +26°C° 0 mm 3 mps 760 mmHg 42%
    12:00 +26°C° 0 mm 3 mps 759 mmHg 39%
    13:00 +27°C° 0 mm 3 mps 758 mmHg 36%
    14:00 +27°C° 0 mm 3 mps 758 mmHg 37%
    15:00 +27°C° 0 mm 3 mps 758 mmHg 38%
    16:00 +27°C° 0 mm 3 mps 757 mmHg 39%
    17:00 +26°C° 0 mm 3 mps 758 mmHg 43%
    18:00 +25°C° 0 mm 2 mps 758 mmHg 47%
    19:00 +24°C° 0 mm 2 mps 759 mmHg 52%
    20:00 +23°C° 0 mm 2 mps 759 mmHg 54%
    21:00 +23°C° 0 mm 2 mps 759 mmHg 57%
    22:00 +21°C° 0 mm 2 mps 759 mmHg 60%
    23:00 +21°C° 0 mm 2 mps 759 mmHg 62%

    18 December, Tuesday

    Time Temperature Precipitation Wind Pressure Humidity
    00:00 +20°C° 0 mm 2 mps 758 mmHg 64%
    01:00 +21°C° 0 mm 1 mps 758 mmHg 65%
    02:00 +21°C° 0 mm 1 mps 758 mmHg 66%
    03:00 +20°C° 0 mm 1 mps 758 mmHg 67%
    04:00 +20°C° 0 mm 1 mps 758 mmHg 68%
    05:00 +19°C° 0 mm 1 mps 758 mmHg 68%
    06:00 +19°C° 0 mm 1 mps 758 mmHg 68%
    07:00 +19°C° 0 mm 1 mps 759 mmHg 68%
    08:00 +21°C° 0 mm 1 mps 759 mmHg 58%
    09:00 +23°C° 0 mm 1 mps 759 mmHg 48%
    10:00 +25°C° 0 mm 1 mps 760 mmHg 38%
    11:00 +26°C° 0 mm 1 mps 759 mmHg 35%
    12:00 +27°C° 0 mm 1 mps 758 mmHg 33%
    13:00 +27°C° 0 mm 2 mps 758 mmHg 30%
    14:00 +27°C° 0 mm 2 mps 757 mmHg 31%
    15:00 +27°C° 0 mm 2 mps 757 mmHg 32%
    16:00 +27°C° 0 mm 2 mps 757 mmHg 33%
    17:00 +26°C° 0 mm 2 mps 757 mmHg 37%
    18:00 +25°C° 0 mm 1 mps 757 mmHg 42%
    19:00 +24°C° 0 mm 1 mps 758 mmHg 47%
    20:00 +23°C° 0 mm 1 mps 758 mmHg 47%
    21:00 +23°C° 0 mm 1 mps 758 mmHg 48%
    22:00 +23°C° 0 mm 2 mps 758 mmHg 49%
    23:00 +23°C° 0 mm 2 mps 757 mmHg 47%
    Show more